Hourly Weather Roundup
Issued by NWS Central Illinois

Home | Current Version | Previous Version | Text Only | Print | Product List | Glossary Off
Versions: 1 2 3 4 5 6 7 8 9 10 11 12 13 14 15 16 17 18 19 20 21 22 23 24 25 26 27 28 29 30 31 32 33 34 35 36 37 38 39 40 41 42 43 44 45 46 47 48 49 50

000
NZUS43 KILX 280410
HWRILX

Area Weather Roundup
National Weather Service Lincoln IL
1100 PM CDT TUE JUN 27 2017

NOTE:  "FAIR" indicates few or no clouds below 12,000 feet, with
       no sigificant weather and/or obstructions to visibility.


CITY           SKY/WX    TMP DP  RH WIND       PRES   REMARKS
Bloomington    CLEAR     60  50  69 S10       30.05F
Champaign      PTCLDY    57  49  74 SE7       30.07S
Danville       CLEAR     60  49  67 SE6       30.07S
Decatur        CLEAR     64  49  57 SE9       30.06S
Effingham      PTCLDY    61  55  83 E3        30.09S
Flora          CLEAR     61  55  80 SE3       30.09S
Galesburg      CLEAR     62  51  68 SE3       30.02R
Jacksonville   CLEAR     64  52  66 SE7       30.02S
Lacon          CLEAR     64  49  57 SE9       30.01S
Lawrenceville  CLEAR     61  56  83 E5        30.10R
Litchfield     CLEAR     64  53  68 SE7       30.04S
$$


CITY           SKY/WX    TMP DP  RH WIND       PRES   REMARKS
Lincoln        CLEAR     62  53  72 CALM      30.03F
Macomb         CLEAR     59  53  80 S7        30.02S
Mattoon        CLEAR     61  53  75 SE5       30.07S
Mt Carmel AP   CLEAR     60  55  83 CALM      30.10R
Olney-Noble AP CLEAR     60  57  89 SE5       30.09S
Paris AP       CLEAR     55  52  89 SE3       30.10S
Peoria         CLEAR     65  49  56 SE5       30.02S
Pontiac        CLEAR     59  53  79 SE8       30.05S
Rantoul        CLEAR     62  51  68 S5        30.08R
Robinson       CLEAR     56  53  91 CALM      30.10S
Springfield    CLEAR     66  53  63 SE7       30.03S
Taylorville    CLEAR     64  51  61 SE7       30.05S
$$

...REGIONAL REPORTS...


CITY           SKY/WX    TMP DP  RH WIND       PRES   REMARKS
Chicago O`Hare PTCLDY    67  45  45 S9        30.03S
Kankakee       NOT AVBL
Moline         CLEAR     62  50  64 S7        29.99R
Mount Sterling CLEAR     61  54  79 SE6       30.00S
Mount Vernon   CLEAR     62  54  74 CALM      30.08R
Pittsfield     CLEAR     65  55  68 SE5       30.02S
Quincy         CLEAR     67  53  61 SE9       29.99S
Rockford       PTCLDY    62  46  55 S7        30.02F
$$


CITY           SKY/WX    TMP DP  RH WIND       PRES   REMARKS
Burlington     CLEAR     67  54  63 S9        29.98S
Cedar Rapids   CLEAR     64  51  62 S6        29.95R
Des Moines     MOCLDY    72  56  57 SE10      29.88F
Kirksville     MOCLDY    69  57  65 S9        29.96S
Ottumwa        PTCLDY    69  51  52 SE9       29.93S
St Louis       CLEAR     75  52  44 SE13      30.03R
$$


CITY           SKY/WX    TMP DP  RH WIND       PRES   REMARKS
Terre Haute    CLEAR     59  52  77 CALM      30.10R
Evansville     CLEAR     63  55  75 CALM      30.10R
Indianapolis   PTCLDY    62  47  57 S6        30.11R
Lafayette      CLEAR     57  51  80 CALM      30.09R
Madison        CLEAR     64  49  57 S7        29.99R
Milwaukee      PTCLDY    65  49  56 S9        30.01S
$$






USA.gov is the U.S. government's official web portal to all federal, state and local government web resources and services.